Santorini Island, Greece

8:24 PM EEST on June 26, 2017 (GMT +0300)
Santorini

Weather History for LGSR - December, 2012

Change the Weather History Date:

Tuesday, December 11, 2012

  Actual Average Record
Temperature  
Mean Temperature 54 °F -  
Max Temperature 62 °F 58 °F 66 °F (1999)
Min Temperature 46 °F 52 °F 41 °F (2010)
Degree Days  
Heating Degree Days 11    
Growing Degree Days 4 (Base 50)    
Moisture  
Dew Point 45 °F    
Average Humidity 61    
Maximum Humidity 82    
Minimum Humidity 52    
Precipitation  
Precipitation 0.00 in - - ()
Sea Level Pressure  
Sea Level Pressure 29.88 in    
Wind  
Wind Speed 9 mph ()    
Max Wind Speed 21 mph    
Max Gust Speed 30 mph    
Visibility 6.2 miles    
Events Rain    
Averages and records for this station are not official NWS values.
T = Trace of Precipitation, MM = Missing Value Source: Averaged Metar Reports

Daily Weather History Graph

Daily Weather History Graph

Search for Another Location

Airport or City:

Trip Planner

Search our weather history database for the weather conditions in past years. The results will help you decide how hot, cold, wet, or windy it might be!

Date:

Astronomy

Dec. 11, 2012 Rise Set
Actual Time 7:19 AM EET 5:03 PM EET
Civil Twilight 6:51 AM EET 5:31 PM EET
Nautical Twilight 6:18 AM EET 6:04 PM EET
Astronomical Twilight 5:47 AM EET 6:35 PM EET
Moon 4:53 AM EET (12/11) 3:23 PM EET (12/11)
Length of Visible Light 10h 40m
Length of Day
9h 43m
Waning Crescent, 6% of the Moon is Illuminated
Dec 11
Waning Crescent
Dec 13
New
Dec 20
First Quarter
Dec 28
Full
Jan 5
Last Quarter

Hourly Weather History & Observations

Time (EET) Temp. Windchill Dew Point Humidity Pressure Visibility Wind Dir Wind Speed Gust Speed Precip Events Conditions
6:50 AM 46.4 °F 44.3 °F 41.0 °F 81% 29.92 in 6.2 mi WSW 4.6 mph - N/A   Partly Cloudy
7:20 AM 48.2 °F - 42.8 °F 82% 29.92 in 6.2 mi SW 4.6 mph - N/A   Partly Cloudy
7:50 AM 50.0 °F - 41.0 °F 71% 29.92 in 6.2 mi Calm Calm - N/A   Partly Cloudy
8:20 AM 53.6 °F - 42.8 °F 67% 29.92 in 6.2 mi Calm Calm - N/A   Partly Cloudy
8:50 AM 57.2 °F - 42.8 °F 59% 29.92 in 6.2 mi West 6.9 mph - N/A   Partly Cloudy
9:20 AM 59.0 °F - 42.8 °F 55% 29.92 in 6.2 mi West 11.5 mph - N/A   Partly Cloudy
9:50 AM 60.8 °F - 42.8 °F 52% 29.92 in 6.2 mi WSW 11.5 mph - N/A   Partly Cloudy
10:20 AM 60.8 °F - 44.6 °F 55% 29.92 in 6.2 mi WSW 13.8 mph - N/A   Partly Cloudy
10:50 AM 60.8 °F - 46.4 °F 59% 29.92 in 6.2 mi SW 16.1 mph - N/A   Scattered Clouds
11:20 AM 60.8 °F - 44.6 °F 55% 29.92 in 6.2 mi SW 17.3 mph - N/A   Scattered Clouds
11:50 AM 60.8 °F - 42.8 °F 52% 29.89 in 6.2 mi SW 17.3 mph - N/A   Scattered Clouds
12:20 PM 60.8 °F - 42.8 °F 52% 29.89 in 6.2 mi SSW 17.3 mph - N/A   Scattered Clouds
12:50 PM 60.8 °F - 42.8 °F 52% 29.89 in 6.2 mi SSW 18.4 mph - N/A Rain Light Rain
1:20 PM 59.0 °F - 46.4 °F 63% 29.89 in 6.2 mi SW 15.0 mph 26.5 mph N/A Rain Light Rain
1:50 PM 60.8 °F - 46.4 °F 59% 29.86 in 6.2 mi South 12.7 mph 25.3 mph N/A   Scattered Clouds
2:20 PM 60.8 °F - 46.4 °F 59% 29.86 in 6.2 mi SSW 10.4 mph 26.5 mph N/A   Mostly Cloudy
2:50 PM 62.6 °F - 46.4 °F 55% 29.86 in 6.2 mi SSW 18.4 mph 29.9 mph N/A   Scattered Clouds
3:20 PM 62.6 °F - 46.4 °F 55% 29.83 in 6.2 mi SSW 18.4 mph 29.9 mph N/A   Scattered Clouds
3:50 PM 62.6 °F - 46.4 °F 55% 29.83 in 6.2 mi SSW 20.7 mph - N/A   Scattered Clouds
4:20 PM 60.8 °F - 46.4 °F 59% 29.83 in 6.2 mi SW 20.7 mph - N/A   Scattered Clouds
4:50 PM 60.8 °F - 48.2 °F 63% 29.83 in 6.2 mi SSW 18.4 mph - N/A   Scattered Clouds
5:20 PM 60.8 °F - 48.2 °F 63% 29.83 in 6.2 mi SW 16.1 mph 28.8 mph N/A Rain Light Rain
7:50 PM 59.0 °F - 50.0 °F 72% 29.86 in 6.2 mi SW 16.1 mph - N/A Rain Light Rain